| time (UTC) | temp F | wind direction | speed MPH | gust MPH | rain 1hr in | rain 24hr in | rain mn in | humidity % | barometer mb |
| 20260905143206 | 73 | 289 | 1.0 | 7.0 | 0.00 | 0.00 | 0.00 | 15 | 1009.1 |
| 20260905143103 | 73 | 285 | 0.0 | 7.0 | 0.00 | 0.00 | 0.00 | 13 | 1009.1 |
| 20260905141206 | 71 | 290 | 0.0 | 7.0 | 0.00 | 0.00 | 0.00 | 6 | 1009.4 |
| 20260905135206 | 70 | 307 | 0.0 | 0.0 | 0.00 | 0.00 | 0.00 | 100 | 1009.5 |
| 20260905133206 | 68 | 293 | 0.0 | 0.0 | 0.00 | 0.00 | 0.00 | 100 | 1009.6 |
| 20260905133103 | 68 | 294 | 4.0 | 0.0 | 0.00 | 0.00 | 0.00 | 100 | 1009.6 |
| 20260905131206 | 66 | 315 | 0.0 | 0.0 | 0.00 | 0.00 | 0.00 | 100 | 1009.4 |
| 20260905125206 | 64 | 47 | 0.0 | 0.0 | 0.00 | 0.00 | 0.00 | 100 | 1009.8 |
| 20260905123207 | 63 | 47 | 0.0 | 0.0 | 0.00 | 0.00 | 0.00 | 100 | 1009.8 |
| 20260905123103 | 62 | 47 | 0.0 | 0.0 | 0.00 | 0.00 | 0.00 | 100 | 1009.8 |
| 20260905121206 | 61 | 47 | 0.0 | 0.0 | 0.00 | 0.00 | 0.00 | 100 | 1009.5 |
| 20260905115206 | 60 | 47 | 0.0 | 0.0 | 0.00 | 0.00 | 0.00 | 100 | 1009.3 |
| 20260905113207 | 59 | 47 | 0.0 | 0.0 | 0.00 | 0.00 | 0.00 | 100 | 1009.2 |
| 20260905113103 | 59 | 47 | 0.0 | 0.0 | 0.00 | 0.00 | 0.00 | 100 | 1009.2 |
| 20260905111210 | 58 | 47 | 0.0 | 0.0 | 0.00 | 0.00 | 0.00 | 100 | 1009.0 |
| 20260905105206 | 58 | 47 | 0.0 | 0.0 | 0.00 | 0.00 | 0.00 | 100 | 1008.7 |
| 20260905103206 | 58 | 47 | 0.0 | 0.0 | 0.00 | 0.00 | 0.00 | 100 | 1008.7 |
| 20260905103103 | 58 | 47 | 0.0 | 0.0 | 0.00 | 0.00 | 0.00 | 100 | 1008.7 |
| 20260905101212 | 58 | 47 | 0.0 | 0.0 | 0.00 | 0.00 | 0.00 | 100 | 1008.7 |
| 20260905095206 | 58 | 47 | 0.0 | 0.0 | 0.00 | 0.00 | 0.00 | 100 | 1008.6 |
| 20260905093206 | 59 | 47 | 0.0 | 0.0 | 0.00 | 0.00 | 0.00 | 100 | 1008.7 |
| 20260905093103 | 59 | 47 | 0.0 | 0.0 | 0.00 | 0.00 | 0.00 | 100 | 1008.7 |
| 20260905091206 | 59 | 47 | 0.0 | 0.0 | 0.00 | 0.00 | 0.00 | 100 | 1008.6 |
| 20260905085206 | 59 | 47 | 0.0 | 0.0 | 0.00 | 0.00 | 0.00 | 100 | 1008.5 |
| 20260905083208 | 59 | 47 | 0.0 | 0.0 | 0.00 | 0.00 | 0.00 | 100 | 1008.4 |
| 20260905083103 | 59 | 47 | 0.0 | 0.0 | 0.00 | 0.00 | 0.00 | 100 | 1008.5 |
| 20260905073207 | 60 | 47 | 0.0 | 0.0 | 0.00 | 0.00 | 0.00 | 100 | 1008.6 |
| 20260905073103 | 60 | 47 | 0.0 | 0.0 | 0.00 | 0.00 | 0.00 | 100 | 1008.6 |
| 20260905071206 | 60 | 47 | 0.0 | 0.0 | 0.00 | 0.00 | 0.00 | 100 | 1008.6 |
| 20260905065206 | 61 | 47 | 0.0 | 0.0 | 0.00 | 0.00 | 0.00 | 100 | 1008.7 |
| 20260905063207 | 61 | 47 | 0.0 | 0.0 | 0.00 | 0.00 | 0.00 | 100 | 1008.9 |
| 20260905063103 | 61 | 47 | 0.0 | 0.0 | 0.00 | 0.00 | 0.00 | 100 | 1008.9 |
| 20260905061206 | 61 | 47 | 0.0 | 0.0 | 0.00 | 0.00 | 0.00 | 100 | 1009.2 |
| 20260905055206 | 61 | 47 | 0.0 | 0.0 | 0.00 | 0.00 | 0.00 | 100 | 1009.3 |
| 20260905053103 | 62 | 47 | 0.0 | 0.0 | 0.00 | 0.00 | 0.00 | 100 | 1009.4 |
| 20260905051207 | 62 | 47 | 0.0 | 0.0 | 0.00 | 0.00 | 0.00 | 100 | 1009.5 |
| 20260905045206 | 63 | 47 | 0.0 | 0.0 | 0.00 | 0.00 | 0.00 | 100 | 1009.4 |
| 20260905043207 | 63 | 47 | 0.0 | 0.0 | 0.00 | 0.00 | 0.00 | 100 | 1009.5 |
| 20260905043103 | 63 | 47 | 0.0 | 0.0 | 0.00 | 0.00 | 0.00 | 100 | 1009.5 |
| 20260905041206 | 63 | 47 | 0.0 | 0.0 | 0.00 | 0.00 | 0.00 | 100 | 1009.5 |
| 20260905035206 | 64 | 47 | 0.0 | 0.0 | 0.00 | 0.00 | 0.00 | 100 | 1009.5 |
| 20260905033103 | 64 | 47 | 0.0 | 0.0 | 0.00 | 0.00 | 0.00 | 100 | 1009.4 |
| 20260905031206 | 64 | 47 | 0.0 | 0.0 | 0.00 | 0.00 | 0.00 | 100 | 1009.2 |
| 20260905025206 | 65 | 47 | 0.0 | 0.0 | 0.00 | 0.00 | 0.00 | 100 | 1009.2 |
| 20260905023103 | 65 | 47 | 0.0 | 0.0 | 0.00 | 0.00 | 0.00 | 100 | 1009.2 |
| 20260905021206 | 66 | 47 | 0.0 | 0.0 | 0.00 | 0.00 | 0.00 | 100 | 1009.1 |
| 20260905015206 | 66 | 47 | 0.0 | 0.0 | 0.00 | 0.00 | 0.00 | 100 | 1009.4 |
| 20260905013206 | 66 | 47 | 0.0 | 0.0 | 0.00 | 0.00 | 0.00 | 100 | 1009.5 |
| 20260905013103 | 67 | 47 | 0.0 | 0.0 | 0.00 | 0.00 | 0.00 | 100 | 1009.5 |
| 20260905011206 | 67 | 47 | 0.0 | 0.0 | 0.00 | 0.00 | 0.00 | 100 | 1009.5 |
| 20260905005206 | 68 | 47 | 0.0 | 0.0 | 0.00 | 0.00 | 0.00 | 100 | 1009.5 |
| 20260905003206 | 68 | 47 | 0.0 | 0.0 | 0.00 | 0.00 | 0.00 | 100 | 1009.4 |
| 20260905003103 | 68 | 47 | 0.0 | 0.0 | 0.00 | 0.00 | 0.00 | 100 | 1009.4 |
| 20260905001206 | 69 | 46 | 0.0 | 0.0 | 0.00 | 0.00 | 0.00 | 100 | 1009.2 |
| 20260904235206 | 71 | 47 | 0.0 | 0.0 | 0.00 | 0.00 | 0.00 | 4 | 1009.1 |
| 20260904233206 | 73 | 47 | 0.0 | 0.0 | 0.00 | 0.00 | 0.00 | 38 | 1008.9 |
| 20260904233103 | 73 | 47 | 0.0 | 0.0 | 0.00 | 0.00 | 0.00 | 39 | 1008.9 |
| 20260904231206 | 74 | 47 | 0.0 | 0.0 | 0.00 | 0.00 | 0.00 | 46 | 1009.0 |
| 20260904225206 | 75 | 47 | 0.0 | 0.0 | 0.00 | 0.00 | 0.00 | 53 | 1008.8 |
| 20260904223209 | 77 | 47 | 0.0 | 0.0 | 0.00 | 0.00 | 0.00 | 54 | 1008.7 |
| 20260904223103 | 77 | 47 | 0.0 | 0.0 | 0.00 | 0.00 | 0.00 | 54 | 1008.7 |
| 20260904221206 | 78 | 47 | 0.0 | 0.0 | 0.00 | 0.00 | 0.00 | 54 | 1008.5 |
| 20260904215206 | 79 | 47 | 0.0 | 6.0 | 0.00 | 0.00 | 0.00 | 54 | 1008.4 |
| 20260904213206 | 81 | 47 | 0.0 | 6.0 | 0.00 | 0.00 | 0.00 | 54 | 1008.5 |
| 20260904213103 | 81 | 47 | 0.0 | 6.0 | 0.00 | 0.00 | 0.00 | 54 | 1008.5 |
| 20260904211206 | 82 | 47 | 0.0 | 6.0 | 0.00 | 0.00 | 0.00 | 51 | 1008.6 |
| 20260904205205 | 83 | 321 | 0.0 | 0.0 | 0.00 | 0.00 | 0.00 | 50 | 1008.4 |
| 20260904203207 | 83 | 321 | 0.0 | 0.0 | 0.00 | 0.00 | 0.00 | 48 | 1008.4 |
| 20260904203103 | 83 | 321 | 4.0 | 0.0 | 0.00 | 0.00 | 0.00 | 50 | 1008.4 |
| 20260904201206 | 85 | 39 | 0.0 | 9.0 | 0.00 | 0.00 | 0.00 | 49 | 1008.5 |
| 20260904195207 | 85 | 39 | 0.0 | 9.0 | 0.00 | 0.00 | 0.00 | 49 | 1008.5 |
| 20260904193207 | 85 | 302 | 0.0 | 9.0 | 0.00 | 0.00 | 0.00 | 47 | 1008.6 |
| 20260904193103 | 85 | 51 | 0.0 | 9.0 | 0.00 | 0.00 | 0.00 | 47 | 1008.5 |
| 20260904185206 | 82 | 294 | 0.0 | 8.0 | 0.00 | 0.00 | 0.00 | 50 | 1008.7 |
| 20260904183206 | 82 | 45 | 0.0 | 8.0 | 0.00 | 0.00 | 0.00 | 49 | 1008.9 |
| 20260904183103 | 82 | 45 | 0.0 | 8.0 | 0.00 | 0.00 | 0.00 | 49 | 1008.8 |
| 20260904181206 | 83 | 34 | 0.0 | 8.0 | 0.00 | 0.00 | 0.00 | 47 | 1008.8 |
| 20260904175206 | 83 | 303 | 0.0 | 7.0 | 0.00 | 0.00 | 0.00 | 48 | 1008.6 |
| 20260904173206 | 82 | 276 | 0.0 | 7.0 | 0.00 | 0.00 | 0.00 | 47 | 1008.9 |
| 20260904173103 | 82 | 277 | 0.0 | 7.0 | 0.00 | 0.00 | 0.00 | 47 | 1009.0 |
| 20260904171206 | 82 | 16 | 0.0 | 7.0 | 0.00 | 0.00 | 0.00 | 46 | 1009.0 |
| 20260904165206 | 82 | 52 | 0.0 | 9.0 | 0.00 | 0.00 | 0.00 | 45 | 1009.2 |
| 20260904163207 | 81 | 285 | 0.0 | 9.0 | 0.00 | 0.00 | 0.00 | 44 | 1009.3 |
| 20260904163103 | 81 | 285 | 0.0 | 9.0 | 0.00 | 0.00 | 0.00 | 44 | 1009.3 |
| 20260904161206 | 81 | 324 | 0.0 | 9.0 | 0.00 | 0.00 | 0.00 | 43 | 1009.4 |
| 20260904155207 | 81 | 348 | 0.0 | 7.0 | 0.00 | 0.00 | 0.00 | 41 | 1009.4 |
| 20260904153103 | 80 | 290 | 0.0 | 7.0 | 0.00 | 0.00 | 0.00 | 39 | 1009.5 |
| 20260904151207 | 80 | 9 | 0.0 | 7.0 | 0.00 | 0.00 | 0.00 | 37 | 1009.4 |
| 20260904145206 | 79 | 264 | 0.0 | 2.0 | 0.00 | 0.00 | 0.00 | 31 | 1009.6 |